Weather reports worldwide

Advertisment
Bonifati, Italy (16337): temperature & dewpoint: 24.09.2020 23:00:00 - 30.09.2020 23:00:00 (CEST)Bonifati, Italy (16337): wind speed: 24.09.2020 23:00:00 - 30.09.2020 23:00:00 (CEST)Bonifati, Italy (16337): wind direction: 24.09.2020 23:00:00 - 30.09.2020 23:00:00 (CEST)Bonifati, Italy (16337): reduced air pressure: 24.09.2020 23:00:00 - 30.09.2020 23:00:00 (CEST)Bonifati, Italy (16337): visibility: 24.09.2020 23:00:00 - 30.09.2020 23:00:00 (CEST)
Date & Time tt [°C] td [°C] ff [km/h] ff [kn] dd ppp [hPa] vv [km]
30.09.2020 23:00:00 - - - - - - -
30.09.2020 22:00:00 - - - - - - -
30.09.2020 21:00:00 - - - - - - -
30.09.2020 20:00:00 15,4 12,5 5 3 N 1014,3 18
30.09.2020 19:00:00 - - - - - - -
30.09.2020 18:00:00 - - - - - - -
30.09.2020 17:00:00 18,8 12,5 8 4 ENE 1014,5 18
30.09.2020 16:00:00 - - - - - - -
30.09.2020 15:00:00 - - - - - - -
30.09.2020 14:00:00 19,0 12,0 11 6 SSW 1015,6 18
30.09.2020 13:00:00 - - - - - - -
30.09.2020 12:00:00 - - - - - - -
30.09.2020 11:00:00 17,4 10,5 0 0 N 1016,5 18
30.09.2020 10:00:00 - - - - - - -
30.09.2020 09:00:00 - - - - - - -
30.09.2020 08:00:00 15,0 10,6 0 0 N 1016,5 18
30.09.2020 07:00:00 - - - - - - -
30.09.2020 06:00:00 - - - - - - -
30.09.2020 05:00:00 - - - - - - -
30.09.2020 04:00:00 - - - - - - -
30.09.2020 03:00:00 - - - - - - -
30.09.2020 02:00:00 - - - - - - -
30.09.2020 01:00:00 - - - - - - -
30.09.2020 00:00:00 - - - - - - -
29.09.2020 23:00:00 - - - - - - -
29.09.2020 22:00:00 - - - - - - -
29.09.2020 21:00:00 - - - - - - -
29.09.2020 20:00:00 16,0 10,7 8 4 W 1017,8 20
29.09.2020 19:00:00 - - - - - - -
29.09.2020 18:00:00 - - - - - - -
29.09.2020 17:00:00 18,0 11,8 13 7 W 1017,2 20
29.09.2020 16:00:00 - - - - - - -
29.09.2020 15:00:00 - - - - - - -
29.09.2020 14:00:00 17,8 11,6 16 9 NW 1017,2 20
29.09.2020 13:00:00 - - - - - - -
29.09.2020 12:00:00 - - - - - - -
29.09.2020 11:00:00 16,4 12,4 26 14 W 1016,7 15
29.09.2020 10:00:00 - - - - - - -
29.09.2020 09:00:00 - - - - - - -
29.09.2020 08:00:00 14,2 12,1 11 6 SSW 1016,2 15
29.09.2020 07:00:00 - - - - - - -
29.09.2020 06:00:00 - - - - - - -
29.09.2020 05:00:00 - - - - - - -
29.09.2020 04:00:00 - - - - - - -
29.09.2020 03:00:00 - - - - - - -
29.09.2020 02:00:00 - - - - - - -
29.09.2020 01:00:00 - - - - - - -
29.09.2020 00:00:00 - - - - - - -
28.09.2020 23:00:00 - - - - - - -
28.09.2020 22:00:00 - - - - - - -
28.09.2020 21:00:00 - - - - - - -
28.09.2020 20:00:00 16,2 12,9 35 19 WSW 1013,8 10
28.09.2020 19:00:00 - - - - - - -
28.09.2020 18:00:00 - - - - - - -
28.09.2020 17:00:00 17,4 13,5 31 17 SSW 1013,3 10
28.09.2020 16:00:00 - - - - - - -
28.09.2020 15:00:00 - - - - - - -
28.09.2020 14:00:00 17,0 12,1 42 23 SW 1013,6 10
28.09.2020 13:00:00 - - - - - - -
28.09.2020 12:00:00 - - - - - - -
28.09.2020 11:00:00 16,2 13,9 22 12 SSW 1012,9 15
28.09.2020 10:00:00 - - - - - - -
28.09.2020 09:00:00 - - - - - - -
28.09.2020 08:00:00 15,0 10,6 37 20 S 1010,0 15
28.09.2020 07:00:00 - - - - - - -
28.09.2020 06:00:00 - - - - - - -
28.09.2020 05:00:00 - - - - - - -
28.09.2020 04:00:00 - - - - - - -
28.09.2020 03:00:00 - - - - - - -
28.09.2020 02:00:00 - - - - - - -
28.09.2020 01:00:00 - - - - - - -
28.09.2020 00:00:00 - - - - - - -
27.09.2020 23:00:00 - - - - - - -
27.09.2020 22:00:00 - - - - - - -
27.09.2020 21:00:00 - - - - - - -
27.09.2020 20:00:00 18,0 15,4 65 35 S 1005,7 0,1
27.09.2020 19:00:00 - - - - - - -
27.09.2020 18:00:00 - - - - - - -
27.09.2020 17:00:00 20,0 13,0 41 22 SE 1006,6 20
27.09.2020 16:00:00 - - - - - - -
27.09.2020 15:00:00 - - - - - - -
27.09.2020 14:00:00 18,4 11,0 34 18 SSE 1008,3 20
27.09.2020 13:00:00 - - - - - - -
27.09.2020 12:00:00 - - - - - - -
27.09.2020 11:00:00 18,0 10,6 26 14 S 1008,2 20
27.09.2020 10:00:00 - - - - - - -
27.09.2020 09:00:00 - - - - - - -
27.09.2020 08:00:00 14,6 9,6 11 6 S 1007,4 20
27.09.2020 07:00:00 - - - - - - -
27.09.2020 06:00:00 - - - - - - -
27.09.2020 05:00:00 - - - - - - -
27.09.2020 04:00:00 - - - - - - -
27.09.2020 03:00:00 - - - - - - -
27.09.2020 02:00:00 - - - - - - -
27.09.2020 01:00:00 - - - - - - -
27.09.2020 00:00:00 - - - - - - -
26.09.2020 23:00:00 - - - - - - -
26.09.2020 22:00:00 - - - - - - -
26.09.2020 21:00:00 - - - - - - -
26.09.2020 20:00:00 14,8 8,1 18 10 W 1005,4 20
26.09.2020 19:00:00 - - - - - - -
26.09.2020 18:00:00 - - - - - - -
26.09.2020 17:00:00 16,0 8,2 18 10 W 1003,6 20
26.09.2020 16:00:00 - - - - - - -
26.09.2020 15:00:00 - - - - - - -
26.09.2020 14:00:00 13,6 8,0 41 22 NW 1002,9 18
26.09.2020 13:00:00 - - - - - - -
26.09.2020 12:00:00 - - - - - - -
26.09.2020 11:00:00 11,4 7,9 34 18 SW 1003,2 15
26.09.2020 10:00:00 - - - - - - -
26.09.2020 09:00:00 - - - - - - -
26.09.2020 08:00:00 15,0 8,2 44 24 WSW 1001,1 12
26.09.2020 07:00:00 - - - - - - -
26.09.2020 06:00:00 - - - - - - -
26.09.2020 05:00:00 - - - - - - -
26.09.2020 04:00:00 - - - - - - -
26.09.2020 03:00:00 - - - - - - -
26.09.2020 02:00:00 - - - - - - -
26.09.2020 01:00:00 - - - - - - -
26.09.2020 00:00:00 - - - - - - -
25.09.2020 23:00:00 - - - - - - -
25.09.2020 22:00:00 - - - - - - -
25.09.2020 21:00:00 - - - - - - -
25.09.2020 20:00:00 22,0 18,2 42 23 SW 1004,1 15
25.09.2020 19:00:00 - - - - - - -
25.09.2020 18:00:00 - - - - - - -
25.09.2020 17:00:00 24,4 19,0 31 17 S 1004,7 16
25.09.2020 16:00:00 - - - - - - -
25.09.2020 15:00:00 - - - - - - -
25.09.2020 14:00:00 23,4 17,4 29 16 S 1007,3 16
25.09.2020 13:00:00 - - - - - - -
25.09.2020 12:00:00 - - - - - - -
25.09.2020 11:00:00 22,4 15,0 26 14 S 1009,6 15
25.09.2020 10:00:00 - - - - - - -
25.09.2020 09:00:00 - - - - - - -
25.09.2020 08:00:00 20,6 13,3 18 10 S 1010,7 15
25.09.2020 07:00:00 - - - - - - -
25.09.2020 06:00:00 - - - - - - -
25.09.2020 05:00:00 - - - - - - -
25.09.2020 04:00:00 - - - - - - -
25.09.2020 03:00:00 - - - - - - -
25.09.2020 02:00:00 - - - - - - -
25.09.2020 01:00:00 - - - - - - -
25.09.2020 00:00:00 - - - - - - -
24.09.2020 23:00:00 - - - - - - -

tt = temperature
td = dewpoint
ff = wind speed
dd = wind direction
ppp = reduced air pressure
vv = visibility

Next stations